This is the latest recevied weather packets stored in our database for station/object EB1AYW-10. If no packets are shown the sender has not sent any weather packets the latest 10 day(s).
| Time | Temp. | Humidity | Pressure | Rain* | Wind** | Luminosity | Snow |
|---|---|---|---|---|---|---|---|
| 1777906606 | 24.44° C | 39% | 921.8 hPa | - | - | - | - |
| 1777905707 | 24.44° C | 39% | 921.8 hPa | - | - | - | - |
| 1777904807 | 24.44° C | 39% | 922 hPa | - | - | - | - |
| 1777903907 | 24.44° C | 39% | 922 hPa | - | - | - | - |
| 1777903007 | 23.89° C | 40% | 922 hPa | - | - | - | - |
| 1777902107 | 23.89° C | 40% | 921.9 hPa | - | - | - | - |
| 1777901207 | 23.89° C | 40% | 921.8 hPa | - | - | - | - |
| 1777900307 | 24.44° C | 39% | 921.8 hPa | - | - | - | - |
| 1777899407 | 24.44° C | 39% | 922 hPa | - | - | - | - |
| 1777898508 | 24.44° C | 39% | 922.1 hPa | - | - | - | - |
| 1777897607 | 24.44° C | 40% | 922.2 hPa | - | - | - | - |
| 1777896707 | 23.89° C | 40% | 922.3 hPa | - | - | - | - |
| 1777895806 | 23.89° C | 40% | 922.5 hPa | - | - | - | - |
| 1777894906 | 23.89° C | 40% | 922.8 hPa | - | - | - | - |
| 1777894006 | 23.89° C | 40% | 922.9 hPa | - | - | - | - |
| 1777893107 | 23.33° C | 40% | 922.9 hPa | - | - | - | - |
| 1777892206 | 23.89° C | 40% | 922.9 hPa | - | - | - | - |
| 1777891307 | 23.33° C | 40% | 923 hPa | - | - | - | - |
| 1777890406 | 23.33° C | 41% | 923 hPa | - | - | - | - |
| 1777889507 | 23.33° C | 40% | 923 hPa | - | - | - | - |
| 1777888607 | 23.33° C | 40% | 923 hPa | - | - | - | - |
| 1777887707 | 23.33° C | 40% | 923 hPa | - | - | - | - |
| 1777886807 | 22.78° C | 41% | 923 hPa | - | - | - | - |
| 1777885907 | 22.78° C | 41% | 923 hPa | - | - | - | - |
| 1777885007 | 22.78° C | 41% | 923.1 hPa | - | - | - | - |
* Rain since midnight (hover to see other rain measurements)
** Current wind speed in m/s (hover to see current wind gust speed)